Change the Weather History Date:

Thursday, October 23, 2014

  Actual Average Record
Temperature  
Mean Temperature 44 °F -  
Max Temperature 59 °F 60 °F 82 °F (1963)
Min Temperature 30 °F 37 °F 24 °F (1969)
Degree Days  
Heating Degree Days 22    
Moisture  
Dew Point 34 °F    
Average Humidity 87    
Maximum Humidity 100    
Minimum Humidity 47    
Precipitation  
Precipitation 0.00 in - - ()
Sea Level Pressure  
Sea Level Pressure 30.25 in    
Wind  
Wind Speed 0 mph (SW)    
Max Wind Speed 7 mph    
Max Gust Speed -    
Visibility 4 miles    
Events Fog    
Averages and records for this station are not official NWS values.
T = Trace of Precipitation, MM = Missing Value Source: NWS Daily Summary

Daily Weather History Graph

Daily Weather History Graph

Search for Another Location

Airport or City:

Trip Planner

Search our weather history database for the weather conditions in past years. The results will help you decide how hot, cold, wet, or windy it might be!

Date:

Astronomy

Oct. 23, 2014 Rise Set
Actual Time 7:58 AM EDT 6:44 PM EDT
Civil Twilight 7:30 AM EDT 7:13 PM EDT
Nautical Twilight 6:58 AM EDT 7:45 PM EDT
Astronomical Twilight 6:26 AM EDT 8:17 PM EDT
Moon 7:37 AM EDT (10/23) 6:45 PM EDT (10/23)
Length of Visible Light 11h 42m
Length of Day
10h 46m
Waning Crescent, 0% of the Moon is Illuminated
Oct 23
Waning Crescent
Oct 23
New
Oct 30
First Quarter
Nov 6
Full
Nov 14
Last Quarter

Hourly Weather History & Observations

Time (EDT) Temp. Dew Point Humidity Pressure Visibility Wind Dir Wind Speed Gust Speed Precip Events Conditions
12:53 AM 37.0 °F 34.0 °F 89% 30.31 in 6.0 mi Calm Calm - N/A   Clear
1:53 AM 34.0 °F 32.0 °F 92% 30.30 in 6.0 mi Calm Calm - N/A   Clear
2:24 AM 34.0 °F 33.1 °F 96% 30.28 in 2.0 mi Calm Calm - N/A   Clear
2:32 AM 33.1 °F 32.0 °F 96% 30.27 in 1.2 mi Calm Calm - N/A   Clear
2:41 AM 34.0 °F 30.9 °F 89% 30.28 in 2.5 mi Calm Calm - N/A   Clear
2:48 AM 33.8 °F 32.0 °F 93% 30.28 in 4.0 mi Calm Calm - N/A   Clear
2:53 AM 34.0 °F 32.0 °F 92% 30.30 in 4.0 mi Calm Calm - N/A   Clear
3:53 AM 34.0 °F 32.0 °F 92% 30.30 in 4.0 mi Calm Calm - N/A   Clear
4:31 AM 33.1 °F 32.0 °F 96% 30.28 in 2.5 mi Calm Calm - N/A   Clear
4:42 AM 32.0 °F 30.9 °F 96% 30.28 in 1.8 mi Calm Calm - N/A   Clear
4:53 AM 33.1 °F 30.9 °F 92% 30.29 in 1.2 mi Calm Calm - N/A   Clear
4:58 AM 33.1 °F 30.9 °F 92% 30.27 in 2.5 mi Calm Calm - N/A   Clear
5:05 AM 32.0 °F 30.0 °F 92% 30.27 in 4.0 mi Calm Calm - N/A   Partly Cloudy
5:24 AM 32.0 °F 30.9 °F 96% 30.27 in 4.0 mi Calm Calm - N/A   Mostly Cloudy
5:46 AM 32.0 °F 30.0 °F 92% 30.27 in 1.5 mi Calm Calm - N/A   Overcast
5:53 AM 32.0 °F 30.9 °F 96% 30.28 in 0.5 mi Calm Calm - N/A Fog Fog
6:53 AM 30.9 °F 28.0 °F 89% 30.29 in 0.5 mi Calm Calm - N/A Fog Light Freezing Fog
7:00 AM 30.0 °F 28.9 °F 96% 30.27 in 2.0 mi Calm Calm - N/A   Overcast
7:07 AM 30.0 °F 28.9 °F 96% 30.27 in 3.0 mi Calm Calm - N/A   Overcast
7:10 AM 30.0 °F 28.9 °F 96% 30.27 in 2.0 mi Calm Calm - N/A   Overcast
7:13 AM 30.0 °F 28.9 °F 96% 30.27 in 1.5 mi Calm Calm - N/A   Overcast
7:40 AM 30.9 °F 28.0 °F 89% 30.26 in 1.0 mi Calm Calm - N/A   Mist
7:50 AM 30.2 °F 28.4 °F 93% 30.26 in 0.5 mi Calm Calm - N/A Fog Light Freezing Fog
7:53 AM 30.9 °F 28.9 °F 92% 30.28 in 0.5 mi Calm Calm - N/A Fog Light Freezing Fog
8:19 AM 30.0 °F 28.9 °F 96% 30.26 in 1.0 mi Calm Calm - N/A   Mist
8:27 AM 30.0 °F 28.9 °F 96% 30.27 in 0.2 mi Calm Calm - N/A Fog Light Freezing Fog
8:53 AM 30.9 °F 30.0 °F 96% 30.29 in 1.0 mi Calm Calm - N/A   Mist
9:10 AM 32.0 °F 30.9 °F 96% 30.26 in 0.5 mi Calm Calm - N/A Fog Fog
9:26 AM 33.1 °F 33.1 °F 100% 30.26 in 1.2 mi Calm Calm - N/A   Scattered Clouds
9:32 AM 35.1 °F 34.0 °F 96% 30.26 in 2.5 mi Calm Calm - N/A   Scattered Clouds
9:49 AM 37.4 °F 37.4 °F 100% 30.27 in 1.5 mi Calm Calm - N/A   Scattered Clouds
9:51 AM 37.4 °F 37.4 °F 100% 30.27 in 0.8 mi Calm Calm - N/A   Mist
9:53 AM 37.9 °F 37.0 °F 97% 30.29 in 0.5 mi Calm Calm - N/A Fog Fog
10:12 AM 39.9 °F 39.0 °F 97% 30.27 in 1.8 mi Calm Calm - N/A   Overcast
10:15 AM 39.9 °F 39.0 °F 97% 30.27 in 2.5 mi Calm Calm - N/A   Mostly Cloudy
10:25 AM 41.0 °F 39.9 °F 96% 30.27 in 3.0 mi Calm Calm - N/A   Mostly Cloudy
10:41 AM 44.1 °F 41.0 °F 89% 30.27 in 5.0 mi Calm Calm - N/A   Partly Cloudy
10:53 AM 46.0 °F 42.1 °F 86% 30.28 in 6.0 mi Calm Calm - N/A   Partly Cloudy
11:53 AM 50.0 °F 39.9 °F 68% 30.28 in 10.0 mi SW 6.9 mph - N/A   Clear
12:53 PM 53.1 °F 41.0 °F 64% 30.26 in 10.0 mi Variable 3.5 mph - N/A   Clear
1:53 PM 55.0 °F 41.0 °F 59% 30.22 in 10.0 mi Calm Calm - N/A   Clear
2:53 PM 55.9 °F 39.9 °F 55% 30.19 in 10.0 mi Calm Calm - N/A   Clear
3:53 PM 57.0 °F 37.9 °F 49% 30.17 in 10.0 mi Calm Calm - N/A   Clear
4:53 PM 57.9 °F 37.9 °F 47% 30.16 in 9.0 mi SW 4.6 mph - N/A   Clear
5:53 PM 55.9 °F 37.9 °F 51% 30.15 in 10.0 mi Calm Calm - N/A   Clear
6:53 PM 48.9 °F 39.9 °F 71% 30.14 in 10.0 mi Calm Calm - N/A   Clear
7:53 PM 46.9 °F 39.0 °F 74% 30.15 in 10.0 mi Calm Calm - N/A   Clear
8:53 PM 46.0 °F 39.0 °F 76% 30.14 in 10.0 mi Calm Calm - N/A   Clear
9:53 PM 43.0 °F 37.9 °F 82% 30.14 in 10.0 mi Calm Calm - N/A   Clear
10:53 PM 39.9 °F 36.0 °F 86% 30.13 in 10.0 mi Calm Calm - N/A   Clear
11:53 PM 39.9 °F 36.0 °F 86% 30.13 in 10.0 mi Calm Calm - N/A   Clear